Location: Newark
(13.6797°N, 8.5297°E)
Time: 15:03:50
(UTC+00:00)

A-11 Canister half - Pass Details

Date: 23 January 2020
Orbit: 1517 x 1683 km, 47.2° (Epoch: 23 February)

Event Time Altitude Azimuth Distance (km) Brightness Sun altitude
Rises 18:49:56 0° 179° (S) 4,864 11.8 -21.3°
Reaches altitude 10° 18:55:25 10° 155° (SSE) 3,843 11.0 -22.6°
Maximum altitude 18:59:48 14° 128° (SE) 3,514 10.5 -23.6°
Enters shadow 18:59:59 14° 127° (SE) 3,514 10.5 -23.6°
Drops below altitude 10° 19:04:08 10° 100° (E) 3,783 - -24.6°
Sets 19:09:20 0° 77° (ENE) 4,732 - -25.8°
